Weather History for Port Angeles, WA

Change the Weather History Date:

Friday, July 12, 2013

  Actual Average Record
Temperature  
Mean Temperature 57 °F -  
Max Temperature 64 °F 66 °F 91 °F (1961)
Min Temperature 50 °F 50 °F 0 °F (2014)
Degree Days  
Heating Degree Days 8    
Growing Degree Days 7 (Base 50)    
Moisture  
Dew Point 47 °F    
Average Humidity 72    
Maximum Humidity 86    
Minimum Humidity 60    
Precipitation  
Precipitation 0.00 in - - ()
Sea Level Pressure  
Sea Level Pressure 30.06 in    
Wind  
Wind Speed 8 mph (WNW)    
Max Wind Speed 14 mph    
Max Gust Speed -    
Visibility 10 miles    
Events      
Averages and records for this station are not official NWS values.
T = Trace of Precipitation, MM = Missing Value Source: NWS Daily Summary

Daily Weather History Graph

Daily Weather History Graph

Search for Another Location

Airport:

Trip Planner

Search our weather history database for the weather conditions in past years. The results will help you decide how hot, cold, wet, or windy it might be!

Date:

Astronomy

Jul. 12, 2013 Rise Set
Actual Time 5:27 AM PDT 9:11 PM PDT
Civil Twilight 4:47 AM PDT 9:51 PM PDT
Nautical Twilight 3:53 AM PDT 10:45 PM PDT
Astronomical Twilight 2:34 AM PDT 12:02 AM PDT
Moon 10:13 AM PDT (7/12) 10:58 PM PDT (7/12)
Length of Visible Light 17h 04m
Length of Day
15h 44m
Waxing Crescent, 18% of the Moon is Illuminated
Jul 12
Waxing Crescent
Jul 15
First Quarter
Jul 22
Full
Jul 29
Last Quarter
Aug 6
New

Hourly Weather History & Observations

Time (PDT) Temp. Dew Point Humidity Pressure Visibility Wind Dir Wind Speed Gust Speed Precip Events Conditions
12:53 AM 51.1 °F 46.0 °F 83% 30.04 in 10.0 mi West 10.4 mph - N/A   Clear
1:53 AM 52.0 °F 46.0 °F 80% 30.04 in 10.0 mi West 8.1 mph - N/A   Clear
2:53 AM 51.1 °F 45.0 °F 80% 30.04 in 10.0 mi West 8.1 mph - N/A   Clear
3:53 AM 50.0 °F 45.0 °F 83% 30.04 in 10.0 mi West 5.8 mph - N/A   Clear
4:53 AM 51.1 °F 46.0 °F 83% 30.04 in 10.0 mi WSW 5.8 mph - N/A   Partly Cloudy
5:53 AM 51.1 °F 46.0 °F 83% 30.04 in 10.0 mi WSW 4.6 mph - N/A   Mostly Cloudy
6:53 AM 54.0 °F 46.9 °F 77% 30.04 in 10.0 mi West 5.8 mph - N/A   Mostly Cloudy
7:53 AM 55.0 °F 46.9 °F 74% 30.04 in 10.0 mi WSW 5.8 mph - N/A   Mostly Cloudy
8:53 AM 57.9 °F 48.9 °F 72% 30.04 in 10.0 mi Variable 5.8 mph - N/A   Mostly Cloudy
9:53 AM 59.0 °F 50.0 °F 72% 30.04 in 10.0 mi North 6.9 mph - N/A   Partly Cloudy
10:53 AM 60.1 °F 50.0 °F 69% 30.04 in 10.0 mi North 5.8 mph - N/A   Clear
11:53 AM 61.0 °F 48.9 °F 64% 30.05 in 10.0 mi North 4.6 mph - N/A   Clear
12:53 PM 61.0 °F 48.0 °F 62% 30.05 in 10.0 mi NE 4.6 mph - N/A   Partly Cloudy
1:53 PM 60.1 °F 48.0 °F 64% 30.06 in 10.0 mi North 6.9 mph - N/A   Scattered Clouds
2:53 PM 60.1 °F 48.9 °F 67% 30.07 in 10.0 mi NW 5.8 mph - N/A   Overcast
3:53 PM 64.0 °F 51.1 °F 63% 30.07 in 10.0 mi North 5.8 mph - N/A   Mostly Cloudy
4:53 PM 63.0 °F 50.0 °F 63% 30.07 in 10.0 mi WNW 10.4 mph - N/A   Overcast
5:53 PM 62.1 °F 48.9 °F 62% 30.07 in 10.0 mi WNW 10.4 mph - N/A   Partly Cloudy
6:53 PM 61.0 °F 46.9 °F 60% 30.07 in 10.0 mi WNW 13.8 mph - N/A   Clear
7:53 PM 59.0 °F 45.0 °F 60% 30.08 in 10.0 mi West 11.5 mph - N/A   Clear
8:53 PM 55.9 °F 44.1 °F 64% 30.09 in 10.0 mi West 10.4 mph - N/A   Clear
9:53 PM 53.1 °F 46.0 °F 77% 30.10 in 10.0 mi West 6.9 mph - N/A   Clear
10:53 PM 50.0 °F 45.0 °F 83% 30.11 in 10.0 mi WNW 5.8 mph - N/A   Clear
11:53 PM 50.0 °F 46.0 °F 86% 30.12 in 10.0 mi West 3.5 mph - N/A   Clear